Location: Hall+in+Tirol
(47.2830°N, 11.5170°E)
Time: 15:01:53
(UTC+02:00)

Daily predictions for brighter satellites

Satellite Brightness Start Highest point End
(mag) Time Altitude Azimuth Time Altitude Azimuth Time Altitude Azimuth
Cosmos 2315 Rocket 4.3 21:40:44 10° N 21:46:51 55° ENE 21:52:54 10° SSE
Cosmos 2266 Rocket 4.1 21:43:07 10° S 21:49:22 70° E 21:55:33 10° NNE
Cosmos 2219 3.8 21:50:32 10° S 21:55:48 39° ESE 22:01:05 10° NE
Cosmos 2237 Rocket 3.7 21:56:09 10° N 22:00:58 27° NE 22:05:45 10° ESE
Cosmos 2322 4.0 21:55:29 10° NNW 22:01:13 73° WSW 22:06:53 10° SSE
CZ-4 SHROUD 3.3 21:58:21 10° S 22:01:29 76° WSW 22:04:38 10° NNW
Cosmos 968 Rocket 4.5 21:56:32 10° SW 22:01:36 52° WNW 22:06:44 10° NNE
Cosmos 2322 Rocket 4.0 21:59:12 10° NW 22:03:46 26° WSW 22:08:20 10° SSW
USA 245 2.6 22:02:30 10° SSE 22:04:56 42° ENE 22:07:10 10° N
Cosmos 1328 3.9 22:01:30 10° S 22:05:23 58° E 22:09:18 10° NNE
CZ-4C R/B 4.3 22:03:33 10° SE 22:06:31 27° ENE 22:09:31 10° N
SL-08 RB Rocket 4.2 22:02:29 10° SE 22:06:44 44° ENE 22:11:01 10° N
Cosmos 2151 2.9 22:03:23 10° S 22:07:34 75° E 22:11:47 10° NNE
Sich 1 4.0 22:07:00 10° SSE 22:10:55 32° E 22:14:51 10° NNE
ATLAS 3B R/B 4.1 22:06:18 10° NW 22:12:44 33° NNE 22:18:48 10° E
Cosmos 1633 Rocket 4.0 22:08:58 10° SSE 22:12:50 31° E 22:16:42 10° NNE
SPOT 5 3.3 22:08:29 10° S 22:13:01 61° WSW 22:17:50 10° NNW
Cosmos 2360 Rocket 2.7 22:08:19 10° NW 22:13:52 57° WSW 22:19:22 10° S
SL-16 R/B 4.2 22:09:54 10° NW 22:14:19 23° WSW 22:18:41 10° SSW
Lacrosse 4 Rocket 4.0 22:15:21 10° N 22:17:41 14° NE 22:20:02 10° ENE
Cosmos 1151 Rocket 4.0 22:14:10 10° NNW 22:18:18 47° W 22:22:26 10° SSW
NOAA 11 4.3 22:14:57 10° SSE 22:20:21 71° ENE 22:25:48 10° N
Cosmos 1726 2.4 22:17:14 10° N 22:20:58 54° ENE 22:24:20 12° SSE
NOSS 3-1 (C) 3.8 22:16:39 10° S 22:22:12 44° ESE 22:28:19 10° NE
Envisat 4.1 22:18:17 10° SSW 22:23:05 41° W 22:27:54 10° NNW
Aureole 3 4.4 22:20:14 10° S 22:26:52 89° W 22:32:08 10° N
Cosmos 1805 Rocket 3.6 22:22:52 10° S 22:27:17 72° E 22:31:44 10° NNE
Cosmos 1271 Rocket 3.3 22:24:05 10° N 22:27:45 43° ENE 22:30:44 14° SE
Cosmos 2058 2.8 22:25:24 10° S 22:29:30 79° E 22:33:37 10° NNE
SL-14 R/B 3.5 22:26:55 10° S 22:30:45 53° E 22:34:41 10° NNE
Cosmos 1703 4.2 22:28:20 14° SSE 22:31:08 30° E 22:34:35 10° NNE
Meteor 1-11 4.3 22:29:03 10° S 22:34:47 70° E 22:40:29 10° NNE
Tiangong 1 3.2 22:33:20 10° S 22:33:50 12° S 22:33:50 12° S
Cosmos 2298 Rocket 4.1 22:34:21 10° S 22:39:33 58° ESE 22:44:47 10° NNE
Cosmos 1707 Rocket 3.8 22:38:18 10° NNW 22:42:39 68° W 22:46:50 11° S
Iridium 2 4.3 22:40:46 16° SSE 22:43:25 40° E 22:47:03 10° NNE
Cosmos 2227 Rocket 3.3 22:40:03 14° SSE 22:43:33 26° ESE 22:48:07 10° NE
Cosmos 1937 Rocket 4.0 22:39:36 11° S 22:44:10 40° ESE 22:49:00 10° NE
NOSS 0 Rocket 4.1 22:42:12 10° NNW 22:48:22 70° ENE 22:53:18 16° SE
Cosmos 1666 Rocket 3.5 22:45:14 10° S 22:49:37 90° SSE 22:54:05 10° N
Meteor 1-4 Rocket 2.6 22:45:50 10° N 22:49:38 84° ENE 22:52:19 18° SSE
Cosmos 2333 Rocket 2.5 22:45:01 10° NNW 22:50:44 61° ENE 22:55:12 17° SE
Landsat 7 3.8 22:47:08 15° SSE 22:51:04 87° ENE 22:55:52 10° NNW
SL-16 R/B 3.5 22:48:31 10° NNW 22:53:30 30° NE 22:58:24 10° ESE
Cosmos 292 Rocket 3.7 22:49:04 10° NNW 22:53:52 89° ENE 22:57:22 18° SSE
Cosmos 220 Rocket 4.4 22:55:25 16° S 22:58:40 46° ESE 23:02:56 10° NNE
IGS 5A 3.6 22:55:59 19° SSE 22:58:50 66° ENE 23:03:00 10° N
H-2A R/B 2.2 22:56:35 17° SSE 23:00:50 86° ENE 23:06:20 10° NNW
COSMOS 2428 3.4 22:56:53 10° NW 23:02:20 48° WSW 23:06:57 14° S
Cosmos 1470 Rocket 3.8 23:00:14 19° SSE 23:03:05 51° E 23:07:17 10° NNE
Cosmos 1626 2.9 23:01:51 22° SE 23:03:37 36° E 23:07:06 10° NNE
Cosmos 1933 Rocket 3.9 23:01:29 19° SSE 23:04:26 52° E 23:08:48 10° NNE
Spot 4 3.9 23:02:59 20° SSE 23:06:21 70° ENE 23:11:13 10° N
Terra 1.8 23:03:30 19° SSE 23:06:56 87° ENE 23:11:44 10° NNW
Cosmos 1300 4.2 23:04:46 10° NNW 23:08:12 31° W 23:11:37 10° SSW
CZ-4B R/B 4.5 23:05:02 10° N 23:10:08 50° WNW 23:15:10 10° SW
Cosmos 2297 Rocket 3.1 23:07:59 20° SSE 23:10:46 29° ESE 23:15:35 10° NE
Cosmos 2219 Rocket 2.3 23:10:13 10° NNW 23:15:48 72° WSW 23:19:37 21° SSE
ARGOS 4.3 23:13:48 10° SSW 23:18:48 38° W 23:23:48 10° NNW
SL-12 R/B (AUX MOTOR) 4.1 23:22:04 10° W 23:23:32 89° E 23:26:22 10° E
Cosmos 1898 Rocket 3.7 23:19:58 10° SSW 23:25:08 70° WNW 23:30:22 10° NNE
NOSS 3-1 (A) 3.4 23:19:21 10° SW 23:25:19 85° SE 23:32:03 10° NE
Cosmos 2150 Rocket 4.5 23:23:29 10° SSW 23:28:54 66° WNW 23:34:22 10° NNE
Cosmos 1455 2.2 23:27:19 10° NNW 23:31:07 73° W 23:33:01 28° S
Cosmos 1125 Rocket 4.4 23:29:01 24° SE 23:31:13 33° E 23:35:56 10° NE
Cosmos 1980 3.8 23:26:54 10° NNW 23:32:33 73° WSW 23:35:59 24° SSE
Cosmos 1346 3.0 23:33:25 35° SSW 23:34:34 82° WNW 23:37:37 10° N
SeaSat 1 2.9 23:33:16 21° SE 23:36:24 56° NE 23:41:15 10° NNW
BREEZE-M DEB (TANK) 3.9 23:21:12 10° W 23:36:47 78° N 23:40:45 10° E
Cosmos 1869 3.4 23:33:27 10° NNW 23:37:31 78° W 23:39:29 29° S
DMSP B5D2-2 4.2 23:35:33 10° N 23:40:48 75° WNW 23:45:06 15° SSW
Cosmos 389 Rocket 4.0 23:37:43 10° N 23:40:50 27° ENE 23:42:00 22° ESE
Cosmos 1862 Rocket 3.9 23:36:53 10° NNW 23:41:11 60° W 23:43:35 25° SSW
Cosmos 2237 Rocket 2.4 23:39:50 10° NNW 23:45:29 63° WSW 23:48:43 26° S
Cosmos 192 4.4 23:41:31 10° NNW 23:46:26 73° WSW 23:48:57 29° S
ATLAS 2AS CENTAUR R/B 3.1 23:41:29 14° SSW 23:47:55 58° ESE 23:55:48 10° NE
Cosmos 1241 Rocket 4.4 23:45:47 11° SSW 23:51:40 75° ESE 23:57:57 10° NE
Cosmos 2082 3.7 23:47:19 17° SSW 23:51:50 81° ESE 23:57:35 10° NNE
COSMOS 2455 2.9 23:47:24 10° NNW 23:53:28 83° NE 23:57:03 26° SE
CZ-4B R/B 3.2 23:55:31 19° E 23:56:40 23° ENE 23:59:26 10° NNE
